Location: Mound City (historical)
(34.0564°N, 117.2656°W)
Time: 02:33:54
(UTC+00:00)

Tiangong - Pass Details

Date: 08 September 2024
Orbit: 372 x 377 km, 41.5° (Epoch: 10 October)

Event Time Altitude Azimuth Distance (km) Brightness Sun altitude
Exits shadow 11:58:20 26° 334° (NNW) 812 -0.6 -18.8°
Maximum altitude 11:59:29 35° 17° (NNE) 649 -0.7 -18.6°
Drops below altitude 10° 12:02:27 10° 86° (E) 1,414 1.9 -18.0°
Sets 12:04:38 0° 95° (E) 2,267 3.0 -17.6°
